This is the latest recevied weather packets stored in our database for station/object ED5YAL-15. If no packets are shown the sender has not sent any weather packets the latest 10 day(s).
| Time | Temp. | Humidity | Pressure | Rain* | Wind** | Luminosity | Snow |
|---|---|---|---|---|---|---|---|
| 1777737039 | 18.89° C | 58% | 1020.9 hPa | - | - | - | - |
| 1777736861 | 18.89° C | 58% | 1020.9 hPa | - | - | - | - |
| 1777736796 | 18.89° C | 58% | 1020.9 hPa | - | - | - | - |
| 1777735900 | 18.33° C | 59% | 1020.9 hPa | - | - | - | - |
| 1777734994 | 17.22° C | 59% | 1021.2 hPa | - | - | - | - |
| 1777734094 | 17.22° C | 59% | 1021.6 hPa | - | - | - | - |
| 1777733193 | 18.33° C | 59% | 1021.6 hPa | - | - | - | - |
| 1777732292 | 20° C | 59% | 1021.5 hPa | - | - | - | - |
| 1777731386 | 20.56° C | 59% | 1021.8 hPa | - | - | - | - |
| 1777730504 | 16.67° C | 60% | 1022 hPa | - | - | - | - |
| 1777729603 | 16.67° C | 59% | 1022 hPa | - | - | - | - |
| 1777728703 | 17.78° C | 58% | 1022.2 hPa | - | - | - | - |
| 1777727802 | 17.78° C | 59% | 1022.4 hPa | - | - | - | - |
| 1777726901 | 17.22° C | 59% | 1022.5 hPa | - | - | - | - |
| 1777726000 | 17.22° C | 59% | 1022.4 hPa | - | - | - | - |
| 1777725099 | 16.11° C | 59% | 1022.4 hPa | - | - | - | - |
| 1777724199 | 16.67° C | 59% | 1022.5 hPa | - | - | - | - |
| 1777723298 | 16.67° C | 59% | 1022.3 hPa | - | - | - | - |
| 1777722397 | 16.11° C | 59% | 1022.6 hPa | - | - | - | - |
| 1777721496 | 17.22° C | 59% | 1022.6 hPa | - | - | - | - |
| 1777720595 | 16.67° C | 59% | 1023 hPa | - | - | - | - |
| 1777719949 | 16.11° C | 59% | 1023.1 hPa | - | - | - | - |
| 1777719694 | 16.11° C | 59% | 1023.1 hPa | - | - | - | - |
| 1777718794 | 16.11° C | 59% | 1022.9 hPa | - | - | - | - |
| 1777717894 | 15.56° C | 59% | 1023 hPa | - | - | - | - |
* Rain since midnight (hover to see other rain measurements)
** Current wind speed in m/s (hover to see current wind gust speed)